Regional Weather Roundup
Issued by NWS

Home | Current Version | Previous Version | Graphics & Text | Print | Product List | Glossary On
Versions: 1 2 3 4 5 6 7 8 9 10 11 12 13 14 15 16 17 18 19 20 21 22 23 24 25 26 27 28 29 30 31 32 33 34 35 36 37 38 39 40 41 42 43 44 45 46 47 48 49 50
283
ASUS45 KBOI 261810
RWRID

IDAHO REGIONAL WEATHER ROUNDUP
NATIONAL WEATHER SERVICE BOISE ID
1200 PM MDT THU MAY 26 2016

NOTE: "FAIR" INDICATES FEW OR NO CLOUDS BELOW 12000 FEET
WITH NO SIGNIFICANT WEATHER AND/OR OBSTRUCTIONS TO VISIBILITY

IDZ012-014-261900-
SOUTHWEST IDAHO


CITY           SKY/WX    TMP DP  RH WIND       PRES   REMARKS
BOISE          SUNNY     67  43  41 W9        30.02S
CALDWELL       SUNNY     68  44  42 SW7       30.02F
MOUNTAIN HOME  SUNNY     73  47  39 NW14G21   30.00F
$$

IDZ016-017-261900-
SOUTHCENTRAL IDAHO


CITY           SKY/WX    TMP DP  RH WIND       PRES   REMARKS
BURLEY         SUNNY     62  42  47 W8        30.02F
JEROME         SUNNY     61  43  51 VRB3      30.04S
TWIN FALLS     SUNNY     62  42  47 W14       30.04S
$$

IDZ019>023-261900-
SOUTHEAST IDAHO


CITY           SKY/WX    TMP DP  RH WIND       PRES   REMARKS
IDAHO FALLS    MOSUNNY   58  44  60 VRB3      30.04F
POCATELLO      MOSUNNY   60  44  55 VRB6      30.04F
REXBURG        SUNNY     58  42  55 SW6       30.03F
$$

IDZ006-010-011-018-031-032-261900-
CENTRAL IDAHO MOUNTAINS


CITY           SKY/WX    TMP DP  RH WIND       PRES   REMARKS
MCCALL         MOSUNNY   59  34  39 S12       30.03S
HAILEY         MOSUNNY   57  45  62 E9        30.06F
STANLEY          N/A     56  31  38 VRB7      30.07F
SALMON         SUNNY     61  37  41 N5        30.00F
CHALLIS        MOSUNNY   59  33  37 VRB6      30.03F
$$

IDZ002-004-006-007-026-261900-
NORTHERN IDAHO


CITY           SKY/WX    TMP DP  RH WIND       PRES   REMARKS
LEWISTON       PTSUNNY   65  46  50 SE6       30.03F
LOWELL           N/A     66  49  54 VRB3      30.00F
COEUR D`ALENE  PTSUNNY   61  45  55 SE15      30.02F
MULLAN PASS    FOG       41  40  96 VRB5      30.07S VSB 1/4
$$




USA.gov is the U.S. government's official web portal to all federal, state and local government web resources and services.